GW6903 Weather Reports


Display with metric or nautical units.
time (UTC)temp
F
wind
direction
speed
MPH
gust
MPH
rain 1hr
in
rain 24hr
in
rain mn
in
humidity
%
barometer
mb
20260504183016 60 90 0.0 1.0 0.00 0.17 0.17 93 1010.3
20260504180016 60 68 1.0 3.0 0.00 0.17 0.17 92 1010.2
20260504173015 61 68 1.0 5.0 0.00 0.18 0.17 92 1010.1
20260504050016 53 225 4.0 9.0 0.00 0.04 0.00 95 1012.6
20260504043016 53 225 2.0 6.0 0.00 0.04 0.00 95 1012.9
20260504040016 53 225 3.0 7.0 0.00 0.04 0.00 96 1012.9
20260504033016 54 225 1.0 6.0 0.00 0.04 0.00 95 1013.1
20260504030016 54 203 1.0 3.0 0.00 0.04 0.00 95 1013.1
20260504023016 54 180 1.0 5.0 0.00 0.04 0.00 95 1013.2
20260504020017 54 225 1.0 2.0 0.00 0.04 0.00 95 1013.3
20260504013016 55 203 2.0 5.0 0.00 0.04 0.00 95 1013.6
20260504010016 55 248 2.0 5.0 0.00 0.04 0.00 95 1013.8
20260504003036 55 225 3.0 6.0 0.00 0.04 0.00 94 1014.0
20260504000016 55 225 2.0 6.0 0.00 0.04 0.00 95 1014.1
20260503233016 55 203 1.0 4.0 0.00 0.04 0.00 94 1014.4
20260503230016 56 203 0.0 2.0 0.00 0.04 0.00 94 1014.9
20260503223016 56 203 1.0 4.0 0.00 0.04 0.00 94 1015.1
20260503220016 56 180 1.0 3.0 0.00 0.04 0.04 94 1015.3
20260503213016 56 203 1.0 2.0 0.00 0.04 0.04 94 1015.2
20260503210016 56 203 0.0 2.0 0.00 0.04 0.04 93 1015.4
20260503203016 56 203 0.0 1.0 0.00 0.04 0.04 93 1015.2
20260503200016 56 203 0.0 2.0 0.00 0.04 0.04 93 1014.8
20260503193016 57 203 1.0 4.0 0.00 0.04 0.04 93 1014.4
20260503190016 57 203 1.0 4.0 0.00 0.04 0.04 92 1014.3